Location: Newark
(33.6333°S, 78.8500°W)
Time: 23:21:01
(UTC+00:00)

Tiros 1 - Pass Details

Date: 24 October 2019
Orbit: 630 x 664 km, 48.4° (Epoch: 12 November)

Event Time Altitude Azimuth Distance (km) Brightness Sun altitude
Rises 22:11:55 0° 226° (SW) 2,944 11.3 16.4°
Reaches altitude 10° 22:14:33 10° 213° (SSW) 2,030 10.3 15.9°
Maximum altitude 22:18:35 28° 154° (SSE) 1,197 8.5 15.0°
Drops below altitude 10° 22:22:35 10° 94° (E) 2,019 9.1 14.2°
Sets 22:25:11 0° 82° (E) 2,924 9.9 13.7°
